OPS 4682 DEB, 38422

Orbit data source: Space-Track

OPS 4682 DEB, 38422 is space debris in LEO originally from a launch on Sat, 03 Apr 1965 UTC launched from the Air Force Western Test Range (AFWTR). Debris objects in space refer to the collection of defunct objects orbiting the Earth. Examples of debris include non-operational satellites, rocket bodies, and fragments generated from explosions, collisions, or faulty payload assembly.

Loading next visibility...
Identifier
38422, 1965-027EB
Orbit
LEO
Country
Flag of USUS
Related business
Manufacturer
Unknown
Mission
Spacecraft
Bus & Motor
Unknown
Mass
Unknown
Launch date (UTC)
1965-04-03 (61 years ago)
Launch vehicle
Unknown
Launch site
Air Force Western Test Range (AFWTR)
Object type
Payload
Rocket body
Debris
Shape & HBR
Unknown shape, 0.1 m
Radar Cross Section
Medium (>0.1 m² and <1 m²)

Expand to show TLE details & history
Last TLE update: 11 hours ago

TLE from 11 hours ago
0 OPS 4682 DEB
1 38422U 65027EB  26264.78669796  .00000533  00000-0  18012-2 0  9992
2 38422  90.2743  26.7159 0035554 165.6685 194.5453 12.97673690675655
Epoch: 2026-09-21T18:52Z
TLE epoch observation values (Epoch: 2026-09-21T18:52:50.703Z)
Latitude
-0°
Longitude
102.84311°
Altitude
1,300.431 km
Speed
7.194 km/s
True Right ascension
01h 46m 51s
True Declination
0° 00' 00"
Sunlit
Object was in full shadow at epoch
Visualization orbit readout
Latitude
Unknown
Longitude
Unknown
Altitude
Unknown
Speed
Unknown
Apparent Right ascension
Unknown
Apparent Declination
Unknown
Sunlit
N/A
Visualization observer readout
Local Sidereal Time
22:49:47
Azimuth
Unknown
Elevation
Unknown
Doppler factor
Unknown
Orbital elements
Apogee altitude
1,295.532 km
Perigee altitude
1,241.159 km
Semi-major axis
7,646.482 km
Eccentricity
0.00356
Inclination
90.2743°
RAAN
26.7159°
Arg. of periapsis
165.6685°
True anomaly
194.44342°
Mean anomaly
194.5453°
Eccentric anomaly
194.49431°
Mean motion
3.24602 °/min
Orbital period
110.91 mins
BSTAR
0.0018012
Loading maneuver chart data...
Computing Atmospheric mass density...
Loading historical data...
Loading historical data...
Loading historical data...
Loading historical data...
Loading historical data...
Loading historical data...
Loading historical data...

Documentation

Showing up to 5 results
|